Terminal Aerodrome Forecast
Issued by NWS

Home | Current Version | Previous Version | Text Only | Print | Product List | Glossary On
Versions: 1 2 3 4 5 6 7 8 9 10 11 12 13 14 15 16 17 18 19 20
000
FTAK31 PAJN 301400 AAB
TAFAYA
TAF AMD
PAYA 301418Z 3014/0112 25005KT P6SM -SHRA SCT010 BKN035 OVC060
      TEMPO 3014/3018 5SM -TSRA BKN025CB OVC035
     FM301800 VRB03KT P6SM VCSH SCT035 BKN050
     FM302100 34008KT P6SM SCT050 SCT070
     FM010300 VRB04KT P6SM SCT070
      AMD LTD TO CLD VIS AND WIND 0101/0110=

USA.gov is the U.S. government's official web portal to all federal, state and local government web resources and services.